Regional Weather Roundup
Issued by NWS Wakefield, VA

Home | Current Version | Previous Version | Graphics & Text | Print | Product List | Glossary On
Versions: 1 2 3 4 5 6 7 8 9 10 11 12 13 14 15 16 17 18 19 20 21 22 23 24 25 26 27 28 29 30 31 32 33 34 35 36 37 38 39 40 41 42 43 44 45 46 47 48 49 50
000
ASUS41 KAKQ 202310
RWRAKQ

REGIONAL WEATHER ROUNDUP
NATIONAL WEATHER SERVICE WAKEFIELD VA
700 PM EDT WED AUG 20 2014

Note: "fair" indicates few or no clouds below 12,000 feet with no
significant weather and/or obstructions to visibility. * = Denotes
station may not report precipitation (e.g., rain,snow,etc.),
thunder or fog.

VAZ042-051-052>054-056-210000-
NORTHERN VIRGINIA

CITY           SKY/WX    TMP DP  RH WIND       PRES   REMARKS
WASH NATIONAL  CLOUDY    76  67  73 S12       29.97F
DULLES         CLOUDY    69  65  86 SE5       29.97S
FORT BELVOIR   MOCLDY    69  67  91 S1        29.98F
QUANTICO       TSTM      72  67  84 SE3       29.99F
FREDERICKSBRG* HVY RAIN  73  71  96 NE13G23   29.99R
STAFFORD*      TSTM      70  70 100 SE6       30.02R
WARRENTON      PTSUNNY   72  72 100 E6        29.96F
CULPEPER*      PTSUNNY  N/A N/A N/A CALM      29.98R
MANASSAS*      PTSUNNY   70  68  94 SE5       29.97F
LEESBURG*      CLOUDY    73  72  94 S5        29.99R
WINCHESTER     MOSUNNY   77  70  78 CALM      29.97R
$$

VAZ048-049-060>072-079>083-210000-
CENTRAL AND SOUTH CENTRAL VIRGINIA...AND NORTH CENTRAL NORTH CAROLINA

CITY           SKY/WX    TMP DP  RH WIND       PRES   REMARKS
RICHMOND       PTCLDY    84  68  58 SE10      29.95S
CHESTERFIELD*  CLOUDY   N/A N/A N/A S9        29.95F
HANOVER        MOCLDY    83  69  62 E3        29.96S
TAPPAHANNOCK*  CLEAR     80  62  54 E7        29.98S
CHARLOTTSVILLE MOSUNNY   84  69  60 S9        29.94R
ORANGE*        TSTM      72  66  83 S9G37     29.99R VSB 1/2
LOUISA*        MOSUNNY   82  72  69 SE3       29.94R
FARMVILLE*     SUNNY     84  72  65 S7        29.92S
SOUTH HILL*    MOSUNNY   82  75  78 CALM      30.00F
ROANOKE RAPIDS PTCLDY    82  73  74 S3        29.95F
RALEIGH        MOSUNNY   79  70  74 VRB3      29.97R
$$

VAZ088>098-210000-
SOUTHEAST VIRGINIA

CITY           SKY/WX    TMP DP  RH WIND       PRES   REMARKS
NORFOLK        CLEAR     78  68  71 E8        29.98S
VIRGINIA BEACH PTCLDY    77  69  76 E8        29.97F
NORFOLK NAVAL  PTCLDY    79  69  71 E12       29.99S
WEST POINT*    CLEAR     81  65  58 E6        29.98S
NEWPORT NEWS   CLEAR     81  69  67 E9        29.98S
LANGLEY AFB    CLEAR     78  70  76 E10       29.98R
FORT EUSTIS    CLEAR     82  64  55 E6        29.95F
WILLIAMSBURG*  CLEAR     82  72  69 E3        29.97F
FRANKLIN*      PTCLDY    82  72  69 CALM      29.96S
WAKEFIELD      PTCLDY    81  72  74 CALM      29.95F
$$

VAZ020-022-025-037-045-210000-
WESTERN AND SOUTHWEST VIRGINIA

CITY           SKY/WX    TMP DP  RH WIND       PRES   REMARKS
STAUNTON*      MOSUNNY   85  65  52 SW12      29.97R
HOT SPRINGS VA MOSUNNY   70  59  68 W9        30.13F
LYNCHBURG      SUNNY     82  73  74 S7        29.98S
DANVILLE       MOSUNNY   85  73  67 S3        29.96S
MARTINSVILLE   SUNNY     85  71  62 SW3       30.00S
ROANOKE        MOSUNNY   86  65  49 CALM      29.98F
BLACKSBURG     SUNNY     81  70  69 NW5       30.06R
DUBLIN*        SUNNY     81  70  68 CALM      30.06R
MARION*        MOSUNNY   77  69  77 SW9       30.12R
HILLSVILLE*    SUNNY     78  65  64 W5        30.09R
RICHLANDS*     MOCLDY    80  71  75 W7        30.11R
WISE*          PTSUNNY   73  64  73 SW6       30.11F
ABINGDON*      PTSUNNY   80  71  73 W6        30.08R
$$

MDZ021>025-VAZ099-100-210000-
SOUTHERN MARYLAND AND THE DELMARVA PENINSULA

CITY           SKY/WX    TMP DP  RH WIND       PRES   REMARKS
PATUXENT RIVER MOCLDY    77  61  57 SE6       29.99
BAY BRIDGE APT   N/A     79  63  57 S7        29.97F
LEONARDTOWN    PTCLDY    77  57  50 E5        30.01S
DOVER          PTCLDY    75  67  76 SE9       29.99S
GEORGETOWN     CLEAR     77  64  64 SE8       30.01S
EASTON         MOCLDY    81  70  69 W3        30.02F
CAMBRIDGE      PTCLDY    79  63  57 S5        29.98F
SALISBURY      CLEAR     79  59  50 SE5       30.01R
OCEAN CITY     CLEAR     75  65  70 E3        30.01S
WALLOPS ISLAND CLEAR     77  68  73 SE8       30.01S
ACCOMACK*      CLEAR     75  66  73 SE3       30.00S
$$

NCZ012>017-030>032-210000-
EASTERN NORTH CAROLINA

CITY           SKY/WX    TMP DP  RH WIND       PRES   REMARKS
ELIZABETH CITY PTCLDY    80  71  74 E6        29.98S
AHOSKIE*       PTCLDY    79  73  83 CALM      29.96F
EDENTON*       PTCLDY    81  73  76 E5        29.97S
CURRITUCK*     PTCLDY    81  68  64 CALM      29.99S
KILL DEVIL HLS PTCLDY    78  71  78 E5        29.97S
MANTEO         PTCLDY    79  72  78 E8        29.98F
CAPE HATTERAS  PTCLDY    78  72  81 E3        29.98R
GOLDSBORO      MOSUNNY   87  77  71 SE3       29.94S HX  99
WASHINGTON     PTCLDY    85  71  62 CALM      29.96F
GREENVILLE     PTCLDY    86  73  66 CALM      29.98S
NEW BERN       MOCLDY    85  75  72 SW7       29.98S
WILMINGTON     PTCLDY    83  76  79 CALM      29.97S
$$

VAZ048-210000-
ELSEWHERE

CITY           SKY/WX    TMP DP  RH WIND       PRES   REMARKS
HARRISBURG PA  CLOUDY    78  68  71 SE6       29.96F
BALTIMORE      CLOUDY    75  67  76 CALM      29.96F
ANNAPOLIS      CLOUDY    78  64  61 S10G21    29.95F
ANDREWS AFB    DRIZZLE   71  68  89 SE8       29.96F
WILMINGTON DE  CLOUDY    78  64  61 S14       30.00R
PHILADELPHIA   CLOUDY    81  66  60 S13       29.99R
WILDWOOD NJ*   CLEAR     75  63  64 SE7       30.02S
ATLANTIC CITY  CLOUDY    74  63  68 SE8       30.01S
HENDERSON NC   MOSUNNY   83  71  68 S5        29.97S
GREENSBORO     MOSUNNY   85  69  58 SW9       29.98R
ROCKY MOUNT    MOSUNNY   79  75  87 CALM      29.96F
FAYETTEVILLE   SUNNY     89  71  55 SW6       29.95S HX  95
CHARLOTTE      MOSUNNY   86  71  60 W3        29.99S
$$

VAZ100-210000-
MARINE

STATION/POSITION TIME  TEMP    WIND        PRES    WAVE   SWELL
                       AIR SEA DIR/SP/G            HT/PER HT/PER
                 (UTC) (F)     (DEG/KT/KT) (MB)    (FT/S) (FT/S)
44066 TX TWR #4  2300   72 73   50/ 10/ 10 1016.0R   3/ 6   3/ 6
CAPE MAY NJ      2300   74 81  110/  5/  7 1015.9R
LEWES DE         2300   75 77  130/  5/  7 1016.1R
15NM E FENWICK I 2300   74 76              1016.0R   3/ 6
OCEAN-CITY-INLET 2300   76 76  130/  3/  6 1015.9R
WACHAPREAGUE VA  2300   76 81   90/  6/  8 1015.8S
THOMAS POINT MD  2300   78 79  180/ 18/ 20 1014.6F
GOOSES REEF MD   2300   79     190/ 12/ 14 1015.7F
COVE POINT MD    2300   78     190/ 12/ 13 1015.4S
SOLOMONS ISLAND  2300      81                N/A
BISHOPS HEAD MD  2300   79 82  170/ 10/ 13 1015.3S
PINEY POINT MD   2300          140/ 12/ 13   N/A
POTOMAC MD       2300   79     140/  8/ 10 1014.8S
CAMBRIDGE MD     2300   80 78  210/  5/  7 1015.0F
LEWISETTA VA     2300   79 81  150/  7/  9 1014.9F
RAPPAHANNOCK LGT 2300          110/  9/ 10 1015.9F
STINGRAY PT      2300   79     130/  8/ 10 1015.9F
YORK RVR RNG VA  2300   77     130/ 10/ 12 1014.7R
YORKTOWN VA      2300   78 80  120/  9/ 11 1014.9S
JAMESTOWN VA     2300   82     120/  8/ 10   N/A
DOMINION TERM VA 2300   78      80/ 10/ 13 1015.1F
KIPTOPEKE VA     2300      83  100/  6/ 10   N/A
CHES BAY BRIDGE  2300   77 78   60/ 11/ 12 1014.6F
CAPE HENRY VA    2300   76      80/ 10/ 11 1013.9F
CHESAPEAKE LGHT  2200   76      70/  5/  6 1016.3R
WILLOUBY STN VA  2300   77      80/ 10/ 11 1013.8F
S CRANEY ISL VA  2300           30/  7/ 11 1014.5F
CAPE HENRY BUOY  2300      78                N/A     2/ 6
1ST LANDING BUOY 2300   77      80/ 10/ 12 1014.7F
CAPE CHARLES BUO 2300      77                N/A     2/ 5   2/ 5
OFFSHORE WE BUOY 2300      78                N/A     3/ 5   2/ 5
64NM E OF VA BCH 2300   78 78   70/  6/  8 1015.0R   2/ 5   2/ 5
DUCK PIER NC     2300   79 80   80/  8/  9 1014.4F
44056 DUCK FRF   2300                        N/A     2/ 6
OREGON INLET NC  2300   78 83   40/  5/  7 1015.2S
HATTERAS NC      2300   80 83   50/  4/  5 1015.6R
DIAMOND SHLS NC  2300   78     320/  6/  8 1015.0R   3/ 6   2/ 6
CAPE LOOKOUT NC  2200   81     200/  6/  8 1015.1R
$$


USA.gov is the U.S. government's official web portal to all federal, state and local government web resources and services.